SENTINEL-2C

Last updated on Mon Sep 21 2026 00:02:46 GMT+0000 (Coordinated Universal Time)

1 60989U 24157A 26263.48723347 .00000039 00000+0 31511-4 0 9994 2 60989 98.5719 336.8948 0001363 85.4822 274.6516 14.30814517106615
UTC large
Height (km)
Speed (km/s)
/
Latitude / Longitude
Inclination (degrees)
Orbital Period (minutes)
Azimuth
Elevation
Range (km)
Doppler Factor

Next 0 passes for location: London (51.5072 / 0.1276)

No passes found over London.
SENTINEL-2C